Location: Le Couret-Fariaux
(46.2038°N, 1.4190°E)
Time: 00:27:18
(UTC+00:00)

Daily predictions for brighter satellites

Satellite Brightness Start Highest point End
(mag) Time Altitude Azimuth Time Altitude Azimuth Time Altitude Azimuth
ATLAS CENTAUR R/B 4.3 00:02:56 10° N 00:04:03 12° NNE 00:05:24 10° ENE
Lacrosse 5 4.0 00:01:53 10° W 00:03:12 13° WSW 00:03:12 13° WSW
Cosmos 292 Rocket 4.0 00:03:39 47° WSW 00:04:48 62° WNW 00:09:38 10° NNE
STARLINK-1104 3.7 00:04:37 10° WNW 00:08:12 62° W 00:08:12 62° W
Cosmos 1655 Rocket 4.2 00:07:30 38° SW 00:09:46 61° WNW 00:15:58 10° N
S3M 4.3 00:04:46 10° NNW 00:10:43 54° W 00:12:36 40° SW
GEOS 3 Rocket 4.1 00:07:39 22° ESE 00:10:59 60° NE 00:16:12 10° NNW
Cosmos 1726 2.4 00:07:35 10° NNW 00:10:54 58° WNW 00:10:54 58° WNW
Cosmos 2058 Rocket 4.5 00:08:22 10° N 00:12:20 31° ENE 00:13:46 26° ESE
COSMOS 2455 3.3 00:11:39 40° SSE 00:12:58 46° ESE 00:18:41 10° NE
STARLINK-1144 3.9 00:09:36 10° WNW 00:12:59 54° W 00:12:59 54° W
Meteor 1-29 4.2 00:10:54 10° NNE 00:13:32 32° ENE 00:13:32 32° ENE
SL-27 R/B 4.3 00:11:02 10° NW 00:13:10 23° WNW 00:13:10 23° WNW
Cosmos 2263 4.2 00:12:25 43° SW 00:14:16 74° WNW 00:19:54 10° NNE
Cosmos 2228 3.2 00:10:45 10° N 00:14:59 60° ENE 00:15:32 55° ESE
STARLINK-1103 4.1 00:14:36 10° WNW 00:17:46 47° W 00:17:46 47° W
Meteor 2-15 Rocket 4.4 00:12:32 10° N 00:18:45 87° E 00:20:55 43° S
Cosmos 1953 2.9 00:15:44 10° NNW 00:19:26 44° W 00:19:26 44° W
Cosmos 1340 Rocket 3.0 00:17:12 10° NNW 00:21:08 59° W 00:21:08 59° W
Cosmos 1271 Rocket 4.2 00:21:40 26° W 00:22:05 26° WNW 00:25:25 10° NNW
STARLINK-1101 4.3 00:19:35 10° WNW 00:22:32 41° W 00:22:32 41° W
Cosmos 1300 4.3 00:20:49 10° NNE 00:24:06 26° ENE 00:25:04 24° E
Cosmos 1992 Rocket 4.2 00:25:14 43° SW 00:26:46 63° WNW 00:31:57 10° NNE
COSMOS 2487 2.7 00:24:09 10° NNW 00:27:18 67° NNE 00:27:18 67° NNE
Cosmos 1833 4.2 00:22:52 10° NNW 00:28:27 63° WSW 00:29:45 49° SSW
Cosmos 1707 4.3 00:29:05 24° W 00:29:32 25° WNW 00:32:48 10° NNW
USA 215 4.3 00:33:07 25° WSW 00:33:07 25° WSW 00:38:09 10° WNW
Cosmos 1626 3.0 00:34:31 37° E 00:34:39 37° E 00:38:07 10° NNE
Cosmos 1656 Rocket 3.8 00:33:51 41° SW 00:35:49 71° WNW 00:41:26 10° NNE
In-Cosmos 22 4.5 00:35:37 40° SW 00:37:10 53° WNW 00:42:22 10° N
Cosmos 1606 Rocket 3.4 00:34:03 10° NNW 00:38:22 74° W 00:38:48 66° SW
FALCON 9 R/B 3.5 00:38:25 34° S 00:39:30 36° SSE 00:53:52 10° E
CZ-4 R/B 4.0 00:39:25 10° N 00:44:13 63° WNW 00:45:23 47° SW
Cosmos 2297 Rocket 4.1 00:42:58 10° N 00:47:48 28° NE 00:52:36 10° ESE
Meteor 2-21 4.4 00:45:34 40° S 00:47:55 81° E 00:54:08 10° N
SL-4 R/B 2.4 00:49:12 56° S 00:49:46 61° SE 00:54:28 10° ENE
NOSS 3-2 (C) 4.3 00:43:48 10° NW 00:51:07 50° WSW 00:54:30 33° S
Cosmos 1437 4.2 00:52:48 28° E 00:52:48 28° E 00:55:08 10° NNE
PSLV R/B 4.0 00:48:20 10° N 00:52:52 56° WNW 00:53:53 45° WSW
Cosmos 1674 3.3 00:53:21 42° W 00:53:28 42° WNW 00:57:04 10° N
ATLAS CENTAUR R/B 1.3 00:56:56 63° SSW 00:57:35 79° SE 01:01:46 10° NE
SL-19 R/B 4.2 00:52:35 10° NNE 00:58:00 77° ESE 01:00:03 40° S
Cosmos 1777 Rocket 3.9 00:54:33 10° NNW 00:59:48 89° WSW 01:01:54 38° SSE
Timation 2 Rocket 4.0 00:53:37 10° NNW 01:00:02 77° ENE 01:04:30 20° SE
NOSS 3-4 (A) 3.5 00:57:31 32° SW 01:00:26 71° NW 01:06:50 10° NE
NOSS 3-4 (C) 3.5 00:57:37 32° SW 01:00:32 71° NW 01:06:57 10° NE
BREEZE-M R/B 3.8 01:01:08 37° SE 01:01:08 37° SE 01:04:01 10° E
SL-16 R/B 3.1 00:56:01 16° SE 01:00:48 54° ENE 01:06:48 10° N
Spot 1 4.2 01:00:54 48° S 01:02:13 85° WSW 01:07:05 10° NNW
STARLINK-29 4.4 01:04:34 29° E 01:04:34 29° E 01:06:31 10° ENE
ATLAS 3B R/B 2.6 01:00:18 10° NW 01:07:06 79° SW 01:12:43 17° SSE
CENTAUR R/B 3.5 01:03:13 10° NW 01:10:54 46° WSW 01:14:47 30° SSW
BREEZE-M DEB (TANK) 1.9 01:12:39 51° ENE 01:12:39 51° ENE 01:14:24 10° ENE
Meteor 2-21 Rocket 4.4 01:11:40 36° SSW 01:14:20 83° W 01:20:33 10° N
Cosmos 1867 3.8 01:10:16 10° NW 01:15:30 47° WSW 01:16:44 40° SSW
Cosmos 1892 Rocket 4.0 01:14:51 42° WSW 01:15:49 50° WNW 01:20:08 10° N
Cosmos 1745 Rocket 4.1 01:12:45 31° S 01:15:51 69° E 01:21:57 10° NNE
RESURS DK-1 2.3 01:19:17 54° S 01:20:08 77° ESE 01:24:17 10° NNE
Cosmos 2227 Rocket 3.4 01:18:16 10° NNW 01:23:39 42° NE 01:29:00 10° SE
Meteor 1-24 Rocket 3.7 01:22:03 37° SW 01:24:02 63° WNW 01:29:24 10° N
Cosmos 1356 Rocket 3.5 01:20:07 10° N 01:24:16 76° ENE 01:25:49 38° SSE
Cosmos 2369 Rocket 4.2 01:21:17 10° W 01:25:24 20° NW 01:29:31 10° N
CZ-2D R/B 2.4 01:22:29 10° NNE 01:27:43 60° ESE 01:30:15 30° S
Helios 1B rocket 4.1 01:24:41 10° NNW 01:27:55 23° WNW 01:29:11 20° W
ATLAS 2AS CENTAUR R/B 3.6 01:23:17 18° WSW 01:29:23 55° NW 01:37:09 10° NE
ADEOS II 3.7 01:25:50 10° NE 01:30:12 26° E 01:34:07 12° SSE
CZ-4C R/B 3.4 01:30:46 41° S 01:32:12 82° WSW 01:36:34 10° NNW
STARLINK-1228 2.9 01:31:25 10° WNW 01:34:46 85° SSW 01:38:07 10° SE
DELTA 2 DEB (DPAF) 4.3 01:34:10 41° SSW 01:35:21 53° W 01:39:45 10° NNW
STARLINK-1234 2.7 01:32:51 10° WNW 01:35:59 87° SSW 01:37:02 38° SE
STARLINK-1212 3.0 01:34:13 10° WNW 01:37:20 73° NNE 01:40:26 10° ESE
Resurs 1-4 Rocket 2.2 01:32:11 10° NNE 01:37:30 75° ESE 01:40:11 30° S
STARLINK-1105 3.0 01:34:41 10° WNW 01:37:47 74° NNE 01:40:52 10° ESE
STARLINK-1209 2.7 01:35:06 10° WNW 01:38:16 80° SSW 01:38:43 61° SE
STARLINK-1247 3.0 01:35:36 10° WNW 01:38:43 75° NNE 01:41:50 10° ESE
STARLINK-1227 2.9 01:36:04 10° WNW 01:39:10 76° NNE 01:42:15 10° ESE
USA 81 4.4 01:36:19 25° SSE 01:39:23 63° E 01:44:37 10° NNE
STARLINK-52 2.8 01:39:41 71° S 01:39:52 74° SSE 01:43:05 10° ENE
STARLINK-1226 2.9 01:36:54 10° WNW 01:40:02 77° NNE 01:43:09 10° ESE
STARLINK-1215 2.9 01:37:51 10° WNW 01:40:59 78° NNE 01:44:05 10° ESE
STARLINK-1217 2.8 01:39:37 10° WNW 01:42:45 81° NNE 01:45:51 10° ESE
STARLINK-1229 2.8 01:40:32 10° WNW 01:43:41 82° NNE 01:46:48 10° ESE
STARLINK-1270 2.8 01:41:24 10° WNW 01:44:32 83° NNE 01:47:39 10° ESE
NPP 3.7 01:39:31 10° NNE 01:44:57 74° ESE 01:47:57 27° S
STARLINK-1189 2.8 01:43:15 10° WNW 01:46:23 86° NNE 01:49:29 10° ESE
STARLINK-1188 2.8 01:44:07 10° WNW 01:47:15 87° NNE 01:50:23 10° ESE
STARLINK-1271 4.4 01:43:48 10° NW 01:47:53 53° NNE 01:51:57 10° E
STARLINK-1235 2.6 01:44:49 10° WNW 01:47:55 74° SSW 01:51:00 10° SE
STARLINK-1187 2.7 01:45:14 10° WNW 01:48:21 82° SSW 01:51:26 10° SE
Cosmos 1898 Rocket 4.3 01:43:50 10° NNW 01:49:04 52° ENE 01:54:15 10° SE
GEOS 3 Rocket 4.5 01:48:43 28° SW 01:49:16 28° WSW 01:53:47 10° WNW
Starlink 7 placeholder 4.2 01:49:43 22° N 01:49:43 22° N 01:51:11 10° NE
STARLINK-1191 2.7 01:46:36 10° WNW 01:49:42 89° SW 01:52:48 10° ESE
Cosmos 2058 Rocket 4.3 01:46:32 10° NNW 01:50:12 26° W 01:51:01 25° WSW
Meteor 1-21 Rocket 4.4 01:46:49 24° S 01:50:15 68° E 01:55:54 10° NNE
Lacrosse 4 Rocket 4.2 01:46:56 10° N 01:50:19 21° NE 01:53:38 10° E
STARLINK-1221 2.7 01:47:28 10° WNW 01:50:35 88° SSW 01:53:41 10° ESE
STARLINK-1222 2.7 01:48:21 10° WNW 01:51:29 87° SSW 01:54:34 10° ESE
Cosmos 1656 4.2 01:48:20 24° S 01:51:37 52° ESE 01:57:05 10° NE
STARLINK-1214 2.7 01:49:17 10° WNW 01:52:23 85° SW 01:55:29 10° ESE
STARLINK-1154 4.3 01:48:47 10° NW 01:52:53 56° NNE 01:56:58 10° ESE
CZ-4C R/B 3.5 01:50:43 16° SSE 01:53:35 26° ESE 01:58:13 10° ENE
Cosmos 2084 3.5 01:52:18 35° SSW 01:54:08 84° SE 01:58:38 10° NE
SJ 16-02 1.8 01:50:16 10° NNW 01:54:40 62° ENE 01:59:03 10° SSE
SL-08 ROCKET BODY 4.5 01:52:04 28° SSW 01:55:12 63° W 02:01:02 10° N
STARLINK-1197 4.2 01:53:45 10° NW 01:57:52 59° NNE 02:01:58 10° ESE
COSMOS 2455 3.9 01:54:47 16° WSW 01:59:01 38° NW 02:04:39 10° NNE
Cosmos 1300 4.1 01:56:35 10° NW 01:59:38 23° W 02:00:00 23° W
Meteor 2-10 Rocket 3.5 01:56:25 10° N 02:01:48 86° E 02:06:01 16° SSE
Cosmos 921 Rocket 3.8 02:00:21 27° WSW 02:02:05 39° WNW 02:06:09 10° N
STARLINK-1198 4.1 01:58:42 10° WNW 02:02:50 63° NNE 02:06:57 10° ESE
Cosmos 1709 Rocket 3.9 02:01:48 22° S 02:05:57 89° W 02:12:07 10° N
STARLINK-1199 4.0 02:03:43 10° WNW 02:07:51 67° NNE 02:11:59 10° ESE
Cosmos 1626 Rocket 4.2 02:06:42 27° SW 02:08:26 40° WNW 02:12:32 10° N
Cosmos 1626 4.1 02:09:03 15° W 02:10:05 16° WNW 02:12:29 10° NNW
STARLINK-60 4.3 02:08:51 16° W 02:11:02 36° NNW 02:14:02 10° NE
STARLINK-1210 3.9 02:08:41 10° WNW 02:12:50 71° NNE 02:16:58 10° ESE
STARLINK-1320 3.2 02:14:52 37° SSW 02:15:41 51° SE 02:18:44 10° ENE
STARLINK-1322 3.2 02:15:11 37° SSW 02:16:02 51° SE 02:19:04 10° ENE
STARLINK-1324 3.2 02:15:32 37° SSW 02:16:23 52° SE 02:19:26 10° ENE
Cosmos 2219 3.2 02:11:04 10° NNW 02:16:39 60° WSW 02:22:10 10° S
STARLINK-1294 3.2 02:15:47 37° SSW 02:16:40 52° SE 02:19:44 10° ENE
STARLINK-1261 3.1 02:16:09 37° SSW 02:17:02 52° SE 02:20:05 10° ENE
STARLINK-1325 3.1 02:16:30 37° SSW 02:17:24 53° SE 02:20:27 10° ENE
STARLINK-1333 3.1 02:16:48 37° SSW 02:17:42 53° SE 02:20:46 10° ENE
STARLINK-1219 3.8 02:13:39 10° WNW 02:17:49 76° NNE 02:21:57 10° ESE
STARLINK-1334 3.1 02:17:07 36° SSW 02:18:02 53° SE 02:21:05 10° ENE
STARLINK-1326 3.1 02:17:28 36° SSW 02:18:23 54° SE 02:21:27 10° ENE
STARLINK-1323 3.1 02:17:47 36° SSW 02:18:43 54° SE 02:21:47 10° ENE
STARLINK-1338 3.5 02:17:39 32° SSW 02:18:57 51° SE 02:22:21 10° ENE
Cosmos 1980 Rocket 3.9 02:14:27 10° SSE 02:19:02 26° ESE 02:23:38 10° NE
STARLINK-1349 3.1 02:18:06 36° SSW 02:19:03 54° SE 02:22:08 10° ENE
STARLINK-1336 3.1 02:18:28 36° SSW 02:19:25 55° SE 02:22:29 10° ENE
STARLINK-1331 3.1 02:18:45 36° SSW 02:19:44 55° SE 02:22:48 10° ENE
STARLINK-1344 3.1 02:19:05 36° SSW 02:20:04 56° SE 02:23:09 10° ENE
STARLINK-1343 3.1 02:19:25 35° SSW 02:20:25 56° SE 02:23:29 10° ENE
STARLINK-1346 3.1 02:19:43 35° SSW 02:20:46 57° SE 02:23:52 10° ENE
STARLINK-1328 3.0 02:20:05 35° SSW 02:21:06 57° SE 02:24:10 10° ENE
STARLINK-1354 3.0 02:20:22 35° SSW 02:21:25 57° SE 02:24:29 10° ENE
STARLINK-1347 3.0 02:20:44 35° SSW 02:21:46 58° SE 02:24:51 10° ENE
Cosmos 1328 3.9 02:19:19 20° S 02:21:58 73° E 02:25:57 10° NNE
STARLINK-1357 3.0 02:21:01 35° SSW 02:22:05 58° SE 02:25:10 10° ENE
STARLINK-1335 3.0 02:21:22 34° SSW 02:22:26 59° SE 02:25:31 10° ENE
STARLINK-1327 3.0 02:21:41 34° SSW 02:22:45 59° SE 02:25:50 10° ENE
STARLINK-1211 3.7 02:18:37 10° WNW 02:22:47 81° NNE 02:26:56 10° ESE
STARLINK-1371 3.4 02:21:31 30° SSW 02:22:58 56° SE 02:26:24 10° ENE
STARLINK-1340 3.0 02:22:01 34° SSW 02:23:07 59° SE 02:26:12 10° ENE
STARLINK-1356 3.0 02:22:21 34° SSW 02:23:28 60° SE 02:26:33 10° ENE
Cosmos 192 4.5 02:20:35 23° SW 02:23:36 65° WNW 02:28:34 10° NNE
STARLINK-1345 3.0 02:22:40 34° SSW 02:23:48 60° SE 02:26:53 10° ENE
STARLINK-1355 3.0 02:22:59 33° SSW 02:24:08 61° SE 02:27:13 10° ENE
STARLINK-1321 3.0 02:23:18 33° SSW 02:24:27 61° SE 02:27:32 10° ENE
ERS-2 3.4 02:21:10 10° SE 02:24:36 41° ENE 02:28:05 10° N
STARLINK-1358 2.9 02:23:39 33° SSW 02:24:49 62° SE 02:27:54 10° ENE
STARLINK-1341 3.3 02:23:29 29° SSW 02:25:00 58° SE 02:28:27 10° ENE
STARLINK-1332 2.9 02:23:57 33° SW 02:25:07 62° SE 02:28:13 10° ENE
STARLINK-1348 2.9 02:24:18 33° SW 02:25:29 63° SE 02:28:35 10° ENE
STARLINK-1330 2.9 02:24:36 33° SW 02:25:48 63° SE 02:28:54 10° ENE
STARLINK-1363 2.9 02:24:56 32° SW 02:26:08 63° SE 02:29:14 10° ENE
STARLINK-1337 2.9 02:25:15 32° SW 02:26:28 64° SE 02:29:34 10° ENE
STARLINK-1342 2.9 02:25:35 32° SW 02:26:49 64° SE 02:29:55 10° ENE
STARLINK-1374 3.3 02:25:26 28° SW 02:27:03 60° SE 02:30:31 10° ENE
STARLINK-1364 2.9 02:25:55 32° SW 02:27:10 65° SE 02:30:16 10° ENE
STARLINK-1376 2.9 02:26:15 31° SW 02:27:31 65° SE 02:30:37 10° ENE
STARLINK-1360 2.9 02:26:30 31° SW 02:27:46 66° SE 02:30:53 10° ENE
STARLINK-1245 3.6 02:23:37 10° WNW 02:27:47 86° NNE 02:31:56 10° ESE
STARLINK-1361 2.9 02:26:56 31° SW 02:28:13 66° SE 02:31:19 10° ENE
STARLINK-1367 2.9 02:27:10 31° SW 02:28:29 67° SE 02:31:38 10° ENE
IRS-1C 4.4 02:23:21 10° NNE 02:28:41 69° ESE 02:33:25 13° S
STARLINK-1366 2.9 02:27:33 31° SW 02:28:52 67° SE 02:31:58 10° ENE
AQUA 4.1 02:24:27 10° N 02:29:06 53° WNW 02:32:11 20° SW
STARLINK-1339 3.3 02:27:27 27° SW 02:29:08 63° SE 02:32:37 10° ENE
Cosmos 1812 Rocket 4.4 02:25:21 10° NNW 02:29:23 34° W 02:31:37 21° SW
SL-4 R/B 3.1 02:24:55 10° W 02:29:39 52° NNW 02:34:13 10° ENE
STARLINK-1377 3.2 02:29:28 26° SW 02:31:14 65° SE 02:34:43 10° ENE
CZ-4B R/B 3.9 02:26:38 10° N 02:31:36 51° WNW 02:35:12 19° SW
Cosmos 2297 Rocket 2.3 02:26:40 10° NW 02:32:11 56° WSW 02:37:40 10° S
STARLINK-1233 3.6 02:28:35 10° WNW 02:32:45 89° SW 02:36:54 10° ESE
STARLINK-1353 3.2 02:31:17 26° SW 02:33:05 67° SE 02:36:33 10° ENE
STARLINK-1375 3.2 02:33:04 25° SW 02:34:56 70° SE 02:38:25 10° ENE
Cosmos 2082 3.8 02:30:14 10° NNW 02:35:57 83° ENE 02:41:35 10° SSE
ATLAS CENTAUR R/B 3.6 02:33:54 10° W 02:36:56 18° NW 02:39:51 10° N
Cosmos 540 Rocket 4.2 02:32:22 11° S 02:37:07 48° ESE 02:42:03 10° NNE
STARLINK-1350 3.1 02:35:22 24° SW 02:37:20 73° SE 02:40:49 10° ENE
STARLINK-1204 3.5 02:33:34 10° WNW 02:37:44 83° SSW 02:41:53 10° SE
FALCON 9 DEB 3.6 02:35:24 17° WSW 02:37:50 58° NNW 02:41:17 10° NE
Cosmos 990 Rocket 4.0 02:32:51 10° NNW 02:38:03 61° WSW 02:43:12 10° S
CBERS-1 4.1 02:33:26 10° N 02:38:31 65° WNW 02:42:29 17° SSW
STARLINK-29 4.1 02:36:59 12° W 02:39:39 38° NNW 02:42:40 10° NE
STARLINK-1352 3.1 02:37:39 22° SW 02:39:45 76° SSE 02:43:17 10° ENE
OE (NEXTSAT) 4.3 02:36:54 14° W 02:39:49 87° S 02:43:18 10° E
Cosmos 1825 Rocket 3.7 02:38:22 19° SSW 02:41:22 60° WNW 02:45:39 10° N
Cosmos 2278 4.5 02:36:09 10° S 02:41:28 48° ESE 02:46:53 10° NE
STARLINK-1368 3.1 02:39:45 21° SW 02:41:56 79° SE 02:45:27 10° ENE
Cosmos 1455 2.9 02:38:43 10° NNW 02:42:10 35° W 02:44:16 19° SSW
STARLINK-1238 3.5 02:38:32 10° WNW 02:42:41 78° SSW 02:46:49 10° SE
CZ-2D R/B 4.4 02:39:01 10° NNE 02:42:58 44° E 02:46:59 10° S
STARLINK-1369 3.1 02:41:37 21° SW 02:43:50 82° SSE 02:47:21 10° ENE
Meteor 1-11 4.4 02:38:15 10° S 02:43:51 74° E 02:49:27 10° NNE
Meteor 1-28 Rocket 3.5 02:40:38 10° SSE 02:44:23 67° ENE 02:48:09 10° N
SL-16 R/B 3.5 02:41:06 17° SW 02:44:43 28° W 02:49:56 10° NW
USA 234 4.4 02:39:18 10° ENE 02:45:03 32° SE 02:50:45 10° S
ATLAS CENTAUR R/B 2.5 02:42:59 10° WNW 02:46:10 46° SW 02:53:23 10° SSE
STARLINK-1372 3.1 02:43:57 20° SW 02:46:18 85° SSE 02:49:51 10° ENE
Cosmos 2074 Rocket 4.2 02:41:01 10° S 02:47:17 77° E 02:53:35 10° N
Cosmos 2263 Rocket 4.4 02:42:44 10° N 02:47:38 30° NE 02:52:30 10° ESE
STARLINK-1201 3.5 02:43:32 10° WNW 02:47:41 72° SW 02:51:48 10° SE
STARLINK-1378 3.1 02:46:05 19° WSW 02:48:32 88° SE 02:52:05 10° ENE
STARLINK-1329 3.1 02:46:35 18° WSW 02:49:03 89° SSE 02:52:37 10° ENE
Cosmos 841 Rocket 3.8 02:44:27 12° S 02:49:21 68° ESE 02:54:34 10° NNE
STARLINK-1365 3.1 02:47:17 18° WSW 02:49:47 87° NW 02:53:20 10° ENE
GP-B 3.8 02:46:19 10° NNW 02:50:26 38° W 02:53:36 15° SW
STARLINK-1379 3.1 02:48:13 18° WSW 02:50:45 89° NNW 02:54:18 10° ENE
STARLINK-1362 3.2 02:48:47 18° WSW 02:51:21 88° NW 02:54:55 10° ENE
IRS-1D 4.0 02:46:12 10° N 02:51:23 52° WNW 02:55:45 14° SW
STARLINK-1206 3.5 02:48:31 10° WNW 02:52:38 67° SW 02:56:45 10° SE
STARLINK-1373 3.2 02:50:59 17° WSW 02:53:39 85° NNW 02:57:12 10° ENE
Cosmos-2242 3.5 02:49:43 10° NNW 02:53:45 41° W 02:57:21 12° SSW
COBE Rocket 3.9 02:49:29 10° SSE 02:54:24 90° WSW 02:59:30 10° NNW
Cosmos 1400 Rocket 2.9 02:50:50 10° N 02:54:58 89° E 02:59:06 10° S
STARLINK-1390 3.2 02:52:58 16° WSW 02:55:42 83° NNW 02:59:15 10° ENE
Cosmos 2221 3.7 02:51:34 10° N 02:55:44 44° ENE 02:59:54 10° SSE
NOSS 7 (E) 4.3 02:53:04 17° SW 02:55:47 82° SE 02:58:55 10° NE
ATLAS 3B R/B 4.1 02:52:47 10° WNW 02:56:50 17° WSW 02:59:50 13° SW
STARLINK-1205 3.6 02:53:31 10° WNW 02:57:37 62° SW 03:01:42 10° SE
Cosmos 2184 Rocket 4.0 02:52:36 10° S 02:58:48 89° E 03:05:01 10° N
SL-08 R/B 3.4 02:55:19 10° S 02:59:57 56° W 03:04:32 10° NNW
CZ-4C R/B 3.6 02:56:48 10° SSE 03:00:20 64° ENE 03:03:58 10° N
STARLINK-1218 3.6 02:58:29 10° WNW 03:02:34 57° SW 03:06:37 10° SE
Cosmos 1703 4.2 03:02:09 14° SW 03:05:03 33° WNW 03:08:40 10° N
IRS-P3 4.4 03:01:48 10° N 03:06:59 53° WNW 03:12:06 10° SW
CZ-2D R/B 3.7 03:03:25 10° NNW 03:07:19 22° WNW 03:11:13 10° WSW
STARLINK-1254 3.7 03:03:29 10° WNW 03:07:32 52° SW 03:11:34 10° SE
Cosmos 2227 Rocket 2.9 03:02:32 10° NW 03:07:36 34° WSW 03:12:38 10° SSW
Cosmos 1763 Rocket 3.9 03:03:46 13° SW 03:08:12 48° WNW 03:13:09 10° NNE
ADEOS II 2.6 03:05:05 10° N 03:10:06 46° WNW 03:15:03 10° SW
Cosmos 1697 Rocket 2.8 03:04:56 12° SW 03:10:16 71° WNW 03:15:58 10° NNE
Cosmos 2150 Rocket 4.5 03:06:33 10° NNW 03:11:45 66° ENE 03:16:51 10° SSE
STARLINK-1231 3.8 03:08:31 10° WNW 03:12:31 48° SW 03:16:30 10° SE
STARLINK-1212 4.5 03:10:48 10° W 03:12:48 16° SW 03:14:47 10° S
STARLINK-1105 4.5 03:11:18 10° W 03:13:15 16° SW 03:15:12 10° S
STARLINK-1246 4.3 03:10:43 10° NW 03:14:49 58° NNE 03:18:55 10° ESE
Cosmos 1315 Rocket 3.6 03:11:09 10° N 03:15:00 53° ENE 03:18:50 10° SSE
SL-16 R/B 4.3 03:12:07 10° SSE 03:16:28 23° ESE 03:20:51 10° NE
Resurs 1-4 Rocket 3.9 03:13:14 10° NNW 03:16:44 18° WNW 03:20:14 10° W
CZ-2C R/B 3.0 03:13:15 10° NNE 03:16:57 65° ESE 03:20:38 10° S
STARLINK-1232 3.9 03:13:31 10° WNW 03:17:29 44° SW 03:21:25 10° SSE
STARLINK-1224 4.2 03:15:42 10° WNW 03:19:49 62° NNE 03:23:55 10° ESE
H-2A R/B 2.1 03:16:32 10° S 03:20:46 62° WSW 03:25:10 10° NNW
ARIANE 5 R/B 2.7 03:16:44 10° N 03:21:42 56° WNW 03:26:35 10° SSW
STARLINK-1208 4.0 03:18:30 10° WNW 03:22:25 41° SW 03:26:18 10° SSE
BREEZE-M R/B 2.9 03:19:51 10° W 03:23:19 47° NNW 03:25:44 10° ENE
STARLINK-1225 4.1 03:20:41 10° WNW 03:24:49 65° NNE 03:28:56 10° ESE
STARLINK-1271 4.1 03:23:32 10° WNW 03:27:23 38° SW 03:31:13 10° SSE
Spot 4 Rocket 4.1 03:22:30 10° N 03:27:37 68° WNW 03:32:42 10° SSW
BREEZE-M DEB (TANK) 2.1 03:26:07 10° W 03:28:00 26° SSW 03:30:06 10° SSE
SL-24 DEB 4.4 03:23:24 10° N 03:28:04 82° E 03:32:40 10° S
Lacrosse 4 Rocket 1.5 03:25:06 10° NW 03:29:22 55° WSW 03:33:28 10° SSE
STARLINK-1230 4.0 03:25:39 10° WNW 03:29:48 70° NNE 03:33:56 10° ESE
Meteor 1-27 4.3 03:24:54 10° NNW 03:30:21 56° W 03:35:46 10° S
Cosmos 2154 Rocket 4.1 03:24:29 10° S 03:30:48 82° W 03:37:05 10° N
USA 129 0.9 03:29:24 10° N 03:31:27 78° WNW 03:32:54 10° SSW
Cosmos 2058 3.5 03:27:57 10° S 03:32:03 60° E 03:36:13 10° NNE
STARLINK-1154 4.2 03:28:34 10° WNW 03:32:20 35° SW 03:36:06 10° SSE
SJ 16-02 3.2 03:30:21 10° WNW 03:32:42 14° W 03:35:03 10° SW
Cosmos 2298 Rocket 4.0 03:28:05 10° NNW 03:33:24 77° WSW 03:38:41 10° SSE
STARLINK-1243 3.9 03:30:38 10° WNW 03:34:47 74° NNE 03:38:55 10° ESE
IDEFIX/ARIANE 42P 2.6 03:30:21 10° NNE 03:35:39 80° WNW 03:40:54 10° SSW
